Погода в Тбилиси

Погода в Тбилиси : погода сейчас, прогноз погоды и архив. Всё, что Вы хотите узнать о погоде в Тбилиси!

Поиск расширенной информации на нашем сайте:

Полезная информация: Компьютерное кресло менеджер стандарт.

Другие новости

Новости СМИ2

Главная страница сайта

Новости сайта

02.10.2013

Напоминаем, что на нашем новом сайте вы можете получить высокодетализированные прогнозы погоды по пунктам России, СНГ и мира (включающие важные для авиации метеовеличины, такие как направление и скорость ветра, видимость, явления погоды, количество и форма облачности, нижняя и верхняя граница облачности), а также ознакомиться с разнообразными материалами по авиационной метеорологии и подборкой полезных ссылок на эту тему.

Сайт Метеоцентр.Азия посвящён разработке технологий оптимизации авиаметеорологического обслуживания, включая проектирование и перспективное создание нескольких автоматизированных авиаметеорологических систем:
- система выпуска высокодетальных прогностических карт явлений погоды для нижнего воздушного пространства по России и ближнему зарубежью;
- система верификации прогнозов TAF (выпускаемых синоптиками официальных АМСГ РФ и ближнего зарубежья) и AUTOTAF (выпускаемых сайтом Метеоцентр.Азия) - выявление ошибок, онлайн-сопоставление с фактической погодой METAR, автоматическое внесение коррективов в прогнозы при резком отклонении фактической погоды от прогноза, подсчёт оправдываемости прогнозов по элементам и в целом;
- система обработки, анализа и отображения авиаметеорологической информации для применения провайдерами метеорологической информации.

Рекомендуем: ауди БМВ мерседес кузовной ремонт

Погода в Тбилиси - сегодня

Время (UTC), дата Ветер
(°,м/с) 
Видим.   Явления Облачность Т
(°С)
Тd
(°С)
f(%) Тe
(°С)
Pmin
(гПа)
dP
(гПа)
Po
(мм)
O2
(г/м3)
Тmin Tmax R s Состояние
почвы
12 22.04.17 360 (С) 15  20000 м    6/6 600 м кучево-дожд. 
[Cb calv]
+11.9 +4.6 61 +9  1020.9  0.2  728  280           
15 22.04.17 360 (С) 17  20000 м    9/4 600 м верхняя 
[Cu hum|Ci]
+10.7 +3.6 61 +7  1020.8  -0.3  728  281    +14.5       
18 22.04.17 270 (З) н/о    9/9 600 м верхняя 
[Ci]
+8.8 +3.4 69 +6  1020.8  -0.4  727  283    +14.5       
21 22.04.17 110 (В) н/о    6/6 600 м 
[Cu hum]
+7.5 +3.6 76 +6  1021  727  285           
00 23.04.17 тихо ()   н/о    9/9 600 м верхняя 
[Ci]
+7 +3.4 78 +7  1020.8  -0.3  727  285           
03 23.04.17 тихо ()   20000 м    9/0 средняя, верхняя 
[As trans|Ci]
+6.2 +4.6 89 +6  1022.3  1.3  728  286           
06 23.04.17 160 (Ю) 20000 м    9/5 600 м верхняя 
[Cu hum|Ci]
+12.4 +10.5 88 +14  1020.4  -0.6  728  278           
09 23.04.17 160 (Ю) 20000 м    9/8 600 м средняя 
[Cu hum|Ac lent]
+14.5 +7.8 64 +14  1016.7  -3.1  725  276           
12 23.04.17 140 (ЮВ) 20000 м    9/6 600 м кучево-дожд., средняя 
[Cb calv|Ac lent]
+16.1 +8.6 61 +16  1012  -4.3  722  273           
15 23.04.17 180 (Ю) 20000 м    10/8 600 м кучево-дожд., средняя, верхняя 
[Cb calv|Ac lent|Ci]
+16.9 +9 60 +18  1007.6  -4  719  271    +18.5       
18 23.04.17 320 (СЗ) 10  н/о    10/10 600 м кучево-дожд. 
[Cb calv]
+14.1 +8.4 69 +13  1010.4  2.2  721  275    +18.5       
21 23.04.17 360 (С) 15  н/о  {гроза, ливн. осадки}  4/4 600 м 
[Cu hum]
+9 +7.7 92 +5  1013.3  1.8  722  280           
00 24.04.17 360 (С) 13  н/о  {ливн. осадки}  8/8 600 м кучево-дожд. 
[Cb calv]
+7.2 +5 86 +3  1015.1  1.4  723  283           
03 24.04.17 360 (С) 13  20000 м    9/8 600 м кучево-дожд., средняя, верхняя 
[Cb calv|Ac lent|Ci]
+8.2 +2.7 68 +5  1015.6  0.7  723  283         
06 24.04.17 340 (С) 12  20000 м    3/3 600 м 
[Cu hum]
+10.7 +5 68 +8  1014.4  -0.7  723  279         
09 24.04.17 320 (СЗ) 18  20000 м    3/3 600 м 
[Cu hum]
+14.7 +5.1 53 +12  1012.8  -0.9  722  275           
12 24.04.17 320 (СЗ) 15  20000 м    3/3 600 м 
[Cu hum]
+16.8 +5.1 46 +15  1012.7  0.3  722  273           
15 24.04.17 340 (С) 14  20000 м    3/3 600 м 
[Cu hum]
+13.6 +1.5 44 +11  1014.7  1.3  723  277    +17       
18 24.04.17 360 (С) 10  н/о    3/3 600 м 
[Cu hum]
+10.9 +3 58 +9  1019.5  4.2  727  281    +17       
21 24.04.17 320 (СЗ) н/о    8/8 600 м 
[Cu hum]
+9.9 +2.3 59 +8  1020.4  0.6  727  282           
00 25.04.17 340 (С) 13  н/о    9/9 600 м кучево-дожд. 
[Cb calv]
+8.4 +1.3 61 +5  1021.3  0.5  727  284           
03 25.04.17 020 (С) 12  20000 м    8/8 600 м кучево-дожд. 
[Cb calv]
+1.4 +3.4 100 -4  1023.5  1.9  729  292           
06 25.04.17 320 (СЗ) 13  20000 м    5/4 600 м средняя 
[Cu hum|Ac trans]
+10.7 +3.6 61 +8  1024.3  1.6  730  282           
09 25.04.17 340 (С) 13  20000 м    5/4 600 м кучево-дожд. 
[Cb calv]
+12.5 +2.7 51 +10  1024.9  0.8  731  281           
12 25.04.17 320 (СЗ) 17  20000 м    3/3 600 м 
[Cu hum]
+13.1 +3 50 +10  1024.6  -0.1  731  280           
Время (UTC), дата Ветер
(°,м/с) 
Видим.   Явления Облачность Т
(°С)
Тd
(°С)
f(%) Тe
(°С)
Pmin
(гПа)
dP
(гПа)
Po
(мм)
O2
(г/м3)
Тmin Tmax R s Состояние
почвы

Для получения пояснительной информации подведите курсор к названию столбца.

ПОГОДА в Тбилиси - архив

Всё, что Вы хотите узнать о погоде в Тбилиси - удобно и подробно!

Выберите нужную дату (начиная с 1 января 2015* года) и нажмите кнопку "Найти".
Будут отображены архивные сводки погоды по пункту Тбилиси, начиная с указанной даты.


Отображать данные в формате CSV (для использования в таблицах Excel)


Внимание! Наш архив погоды предназначен исключительно для личного некоммерческого использования в познавательных целях. Если Вам необходимы официальные справки о состоянии погоды (для производственных, юридических, коммерческих и т.п. целей), обращайтесь в органы Росгидромета.

*Примечание: данная дата относится к архиву по метеостанциям СССР (Россия, СНГ, Балтия).
Архив по метеостанциям Зарубежной Европы и Азии (кроме Китая) хранится 10 дней, по другим регионам земного шара (Китай, Африка, Америка, Австралия, Океания) - 1 день.

Тбилиси - район местоположения метеостанции


Название, широта, долгота, высота метеостанции:
Тбилиси 41.7°ш. 44.8°д. 403 м над ур. моря [Грузия]

Дополнительная информация

В oтличие oт бoльшинства пoгoдных сайтoв мы публикуем пoдрoбную метеoинфoрмацию в детальнoм прoфессиoнальнoм фoрмате.

Характеристики температуры и влажнoсти вoздуха измеряются на высoте 2 м в тени вдали oт зданий и деревьев.
Скoрoсть ветра измеряется на высoте 10 м (на урoвне рoста челoвека скoрoсть ветра ниже в 1.5-2 раза). Если метеoстанция нахoдится в гoрoде или в лесу, тo скoрoсть ветра занижена на 2-4 м/с пo сравнению с oткрытым местoм. Скoрoсть ветра над акватoриями крупных рек и oзёр, а также на вершинах хoлмoв на 2-5 м/с выше, чем в oбычных услoвиях.
Атмoсфернoе давление в разных тoчках местнoсти мoжет значительнo oтличаться oт давления на метеoстанции, в зависимoсти oт услoвий рельефа (при пoдъёме на 10 м давление пoнижается примернo на 1 мм рт.ст.).